Terminal Aerodrome Forecast
Issued by NWS Pittsburgh, PA

Current Version | Previous Version | Graphics & Text | Print | Product List | Glossary On
Versions: 1 2 3 4 5 6 7 8 9 10 11 12 13 14 15 16 17 18 19 20 21 22 23 24 25 26 27 28 29 30 31 32 33 34 35
000
FTUS41 KPBZ 242300
TAFPIT
TAF
KPIT 242320Z 2500/2606 11005KT P6SM FEW250
     FM251000 13008KT P6SM -SHRA OVC040
     FM251600 18012G22KT P6SM BKN025
     FM252200 22012KT P6SM SCT025
     FM260300 20003KT P6SM SCT025=

USA.gov is the U.S. government's official web portal to all federal, state and local government web resources and services.